Weather History for Laramie, WY

Change the Weather History Date:

Friday, May 31, 2013

  Actual Average Record
Temperature  
Mean Temperature 46 °F 52 °F  
Max Temperature 58 °F 67 °F 85 °F (2002)
Min Temperature 34 °F 38 °F 30 °F (1979)
Degree Days  
Heating Degree Days 19 13  
Month to date heating degree days 527 540  
Since 1 July heating degree days 8467 8589  
Cooling Degree Days 0 0  
Month to date cooling degree days 0 0  
Year to date cooling degree days 0 0  
Moisture  
Dew Point 24 °F    
Average Humidity 44    
Maximum Humidity 64    
Minimum Humidity 23    
Precipitation  
Precipitation 0.00 in 0.06 in 0.44 in (1962)
Month to date precipitation 0.88 1.69  
Year to date precipitation 2.86 3.95  
Sea Level Pressure  
Sea Level Pressure 29.80 in    
Wind  
Wind Speed 24 mph (WNW)    
Max Wind Speed 41 mph    
Max Gust Speed 53 mph    
Visibility 10 miles    
Events      
T = Trace of Precipitation, MM = Missing Value Source: NWS Daily Summary

Daily Weather History Graph

Daily Weather History Graph

Search for Another Location

Airport:

Trip Planner

Search our weather history database for the weather conditions in past years. The results will help you decide how hot, cold, wet, or windy it might be!

Date:

Astronomy

May. 31, 2013 Rise Set
Actual Time 5:32 AM MDT 8:29 PM MDT
Civil Twilight 4:59 AM MDT 9:02 PM MDT
Nautical Twilight 4:17 AM MDT 9:44 PM MDT
Astronomical Twilight 3:28 AM MDT 10:33 PM MDT
Moon 1:02 AM MDT (5/31) 12:53 PM MDT (5/31)
Length of Visible Light 16h 03m
Length of Day
14h 56m
Waning Gibbous, 51% of the Moon is Illuminated
May 31
Waning Gibbous
May 31
Last Quarter
Jun 8
New
Jun 16
First Quarter
Jun 23
Full

Hourly Weather History & Observations

Time (MDT) Temp. Windchill Dew Point Humidity Pressure Visibility Wind Dir Wind Speed Gust Speed Precip Events Conditions
12:53 AM 41.0 °F 32.5 °F 23.0 °F 49% 29.71 in 10.0 mi West 17.3 mph - N/A   Clear
1:53 AM 39.9 °F 31.4 °F 23.0 °F 51% 29.71 in - West 16.1 mph - N/A   Clear
2:53 AM 37.0 °F 28.9 °F 23.0 °F 57% 29.71 in - WSW 12.7 mph - N/A   Clear
3:53 AM 37.0 °F 28.1 °F 24.1 °F 59% 29.69 in 10.0 mi West 15.0 mph - N/A   Clear
4:53 AM 36.0 °F 26.0 °F 24.1 °F 62% 29.70 in - WSW 17.3 mph - N/A   Clear
5:53 AM 37.0 °F 26.7 °F 23.0 °F 57% 29.71 in - West 19.6 mph - N/A   Clear
6:53 AM 41.0 °F 30.2 °F 21.9 °F 47% 29.71 in - West 27.6 mph 38.0 mph N/A   Clear
7:53 AM 44.1 °F 35.0 °F 21.9 °F 42% 29.75 in 10.0 mi West 24.2 mph 36.8 mph N/A   Clear
8:53 AM 46.9 °F - 23.0 °F 39% 29.75 in - WNW 25.3 mph 36.8 mph N/A   Partly Cloudy
9:53 AM 48.9 °F - 23.0 °F 36% 29.76 in - WNW 27.6 mph 36.8 mph N/A   Clear
10:53 AM 52.0 °F - 23.0 °F 32% 29.77 in 10.0 mi West 31.1 mph 38.0 mph N/A   Clear
11:53 AM 53.1 °F - 21.9 °F 30% 29.78 in - West 28.8 mph 41.4 mph N/A   Scattered Clouds
12:53 PM 55.0 °F - 19.9 °F 25% 29.78 in 10.0 mi WNW 31.1 mph 47.2 mph N/A   Mostly Cloudy
1:53 PM 55.0 °F - 21.0 °F 27% 29.78 in 10.0 mi West 33.4 mph 44.9 mph N/A   Mostly Cloudy
2:53 PM 55.9 °F - 23.0 °F 28% 29.81 in 10.0 mi West 31.1 mph 49.5 mph N/A   Overcast
3:53 PM 55.9 °F - 23.0 °F 28% 29.82 in 10.0 mi WNW 28.8 mph 44.9 mph N/A   Overcast
4:53 PM 55.9 °F - 21.0 °F 26% 29.83 in 10.0 mi West 33.4 mph 42.6 mph N/A   Overcast
5:53 PM 57.0 °F - 19.0 °F 23% 29.82 in 10.0 mi WNW 27.6 mph 38.0 mph N/A   Overcast
6:53 PM 55.9 °F - 19.0 °F 24% 29.82 in 10.0 mi WNW 32.2 mph 41.4 mph N/A   Overcast
7:53 PM 54.0 °F - 19.9 °F 26% 29.84 in 10.0 mi WNW 19.6 mph 36.8 mph N/A   Overcast
8:10 PM 48.2 °F - 30.2 °F 50% 30.05 in 10.0 mi North 19.6 mph 26.5 mph N/A   Overcast
8:53 PM 46.0 °F 39.0 °F 32.0 °F 58% 29.91 in 10.0 mi NNW 17.3 mph 26.5 mph N/A   Overcast
9:53 PM 43.0 °F 34.8 °F 30.9 °F 62% 29.95 in 10.0 mi NNW 18.4 mph 26.5 mph N/A   Clear
10:53 PM 43.0 °F 34.5 °F 30.9 °F 62% 29.96 in 10.0 mi NNW 19.6 mph 26.5 mph N/A   Clear
11:53 PM 42.1 °F 31.5 °F 30.0 °F 62% 29.98 in 10.0 mi NW 28.8 mph 36.8 mph N/A   Clear